Probability
26 23 26 16 29 23 16 16 16 19 6 3 3 0 0 0 0 3 19 71 71 74 71 68 71 65 68 68 61 58 52 52 52 52 48 42 39 45 48 42 45 48 42
19 16 13 3 3 3 6 6 10 10 3 3 3 0 0 0 0 0 13 35 45 55 55 55 58 55 52 39 42 42 45 39 35 32 32 29 16 13 23 19 23 26 23
10 10 10 3 3 3 3 3 3 3 3 3 0 0 0 0 0 0 0 6 13 32 45 39 35 35 32 29 26 23 19 19 19 19 23 16 10 3 10 6 10 6 6
10 6 6 6 3 3 3 0 0 0 0 0 0 0 0 0 3 3 0 3 0 0 13 19 19 16 23 19 16 10 16 13 13 13 13 6 6 6 3 3 3 3 3
6 6 6 6 6 3 3 3 0 0 0 0 0 0 0 0 0 3 3 0 0 0 0 3 3 6 6 6 6 10 6 6 10 13 10 6 6 3 3 0 0 3 3
6 6 6 3 3 3 0 0 0 0 0 0 3 0 0 0 0 0 0 0 0 0 0 0 0 0 3 3 3 3 3 3 3 3 0 0 0 3 3 0 0 0 0
6 6 6 3 3 0 0 0 0 0 0 0 0 0 0 0 0 0 0 0 0 0 0 0 0 0 0 0 0 0 0 0 3 3 3 0 0 0 0 0 0 0 0
6 6 3 3 3 3 0 0 0 0 0 0 0 0 0 0 0 0 0 0 0 0 0 0 0 0 0 0 0 0 0 0 0 0 0 0 0 0 0 0 0 0 0
3 3 3 3 3 3 3 0 0 0 0 0 0 0 0 0 0 0 0 0 0 0 0 0 0 0 0 0 0 0 0 0 0 0 0 0 0 0 0 0 0 0 0
0 0 0 0 3 0 0 0 0 0 0 0 0 0 0 0 0 0 0 0 0 0 0 0 0 0 0 0 0 0 0 0 0 0 0 0 0 0 0 0 0 0 0
0 0 0 0 0 0 0 0 0 0 0 0 0 0 0 0 0 0 0 0 0 0 0 0 0 0 0 0 0 0 0 0 0 0 0 0 0 0 0 0 0 0 0
0 0 0 0 0 0 0 0 0 0 0 0 0 0 0 0 0 0 0 0 0 0 0 0 0 0 0 0 0 0 0 0 0 0 0 0 0 0 0 0 0 0 0
0 0 0 0 0 0 0 0 0 0 0 0 0 0 0 0 0 0 0 0 0 0 0 0 0 0 0 0 0 0 0 0 0 0 0 0 0 0 0 0 0 0 0
0 0 0 0 0 0 0 0 0 0 0 0 0 0 0 0 0 0 0 0 0 0 0 0 0 0 0 0 0 0 0 0 0 0 0 0 0 0 0 0 0 0 0
0 0 0 0 0 0 0 0 0 0 0 0 0 0 0 0 0 0 0 0 0 0 0 0 0 0 0 0 0 0 0 0 0 0 0 0 0 0 0 0 0 0 0
0 0 0 0 0 0 0 0 0 0 0 0 0 0 0 0 0 0 0 0 0 0 0 0 0 0 0 0 0 0 0 0 0 0 0 0 0 0 0 0 0 0 0
0 0 0 0 0 0 0 0 0 0 0 0 0 0 0 0 0 0 0 0 0 0 0 0 0 0 0 0 0 0 0 0 0 0 0 0 0 0 0 0 0 0 0
0 0 0 0 0 0 0 0 0 0 0 0 0 0 0 0 0 0 0 0 0 0 0 0 0 0 0 0 0 0 0 0 0 0 0 0 0 0 0 0 0 0 0
0 0 0 0 0 0 0 0 0 0 0 0 0 0 0 0 0 0 0 0 0 0 0 0 0 0 0 0 0 0 0 0 0 0 0 0 0 0 0 0 0 0 0
0 0 0 0 0 0 0 0 0 0 0 0 0 0 0 0 0 0 0 0 0 0 0 0 0 0 0 0 0 0 0 0 0 0 0 0 0 0 0 0 0 0 0
0 0 0 0 0 0 0 0 0 0 0 0 0 0 0 0 0 0 0 0 0 0 0 0 0 0 0 0 0 0 0 0 0 0 0 0 0 0 0 0 0 0 0
0 0 0 0 0 0 0 0 0 0 0 0 0 0 0 0 0 0 0 0 0 0 0 0 0 0 0 0 0 0 0 0 0 0 0 0 0 0 0 0 0 0 0
0 0 0 0 0 0 0 0 0 0 0 0 0 0 0 0 0 0 0 0 0 0 0 0 0 0 0 0 0 0 0 0 0 0 0 0 0 0 0 0 0 0 0
0 0 0 0 0 0 0 0 0 0 0 0 0 0 0 0 0 0 0 0 0 0 0 0 0 0 0 0 0 0 0 0 0 0 0 0 0 0 0 0 0 0 0
0 0 0 0 0 0 0 0 0 0 0 0 0 0 0 0 0 0 0 0 0 0 0 0 0 0 0 0 0 0 0 0 0 0 0 0 0 0 0 0 0 0 0
0 0 0 0 0 0 0 0 0 0 0 0 0 0 0 0 0 0 0 0 0 0 0 0 0 0 0 0 0 0 0 0 0 0 0 0 0 0 0 0 0 0 0
Height
5860 5860 5860 5860 5861 5861 5861 5862 5863 5864 5865 5866 5867 5868 5869 5870 5872 5872 5873 5873 5874 5874 5874 5874 5874 5874 5874 5874 5874 5873 5873 5872 5872 5871 5870 5870 5869 5869 5868 5868 5867 5867 5867
5853 5854 5854 5855 5855 5855 5855 5856 5857 5858 5860 5861 5862 5863 5865 5866 5867 5868 5868 5869 5869 5870 5870 5870 5870 5870 5870 5870 5870 5869 5868 5868 5867 5867 5866 5865 5865 5864 5863 5863 5862 5862 5862
5847 5848 5848 5848 5849 5849 5850 5850 5851 5853 5854 5856 5857 5858 5859 5861 5862 5863 5864 5864 5865 5865 5865 5866 5866 5865 5865 5865 5865 5864 5864 5863 5862 5862 5861 5860 5860 5859 5858 5858 5857 5857 5856
5841 5841 5842 5842 5842 5843 5844 5845 5846 5847 5849 5850 5851 5852 5854 5856 5857 5858 5859 5860 5860 5860 5860 5860 5860 5860 5860 5860 5860 5859 5859 5858 5857 5856 5855 5855 5854 5853 5852 5852 5851 5850 5850
5835 5835 5835 5836 5836 5837 5839 5840 5841 5842 5843 5845 5846 5847 5849 5850 5852 5853 5854 5854 5855 5855 5855 5855 5855 5855 5854 5854 5854 5853 5853 5852 5851 5850 5849 5848 5847 5846 5846 5845 5844 5843 5842
5828 5828 5829 5830 5830 5832 5833 5834 5835 5836 5838 5840 5841 5842 5843 5845 5846 5847 5848 5848 5849 5849 5849 5849 5849 5849 5848 5848 5847 5847 5846 5846 5845 5844 5843 5841 5840 5839 5838 5837 5836 5835 5834
5823 5823 5824 5824 5824 5826 5827 5828 5830 5830 5832 5834 5835 5836 5837 5838 5840 5841 5842 5842 5843 5843 5843 5843 5843 5842 5841 5841 5840 5839 5839 5838 5837 5836 5835 5834 5832 5831 5829 5828 5827 5826 5824
5818 5818 5818 5818 5819 5820 5821 5822 5823 5825 5826 5827 5829 5830 5831 5832 5833 5835 5836 5836 5836 5836 5836 5836 5836 5835 5834 5833 5833 5832 5831 5830 5829 5828 5826 5825 5823 5822 5820 5819 5817 5815 5814
5813 5813 5812 5813 5813 5815 5816 5817 5818 5819 5820 5821 5823 5824 5825 5826 5826 5827 5828 5829 5829 5829 5829 5829 5828 5828 5827 5826 5824 5823 5822 5821 5819 5818 5817 5815 5814 5812 5810 5808 5806 5804 5802
5807 5807 5807 5807 5808 5809 5811 5812 5812 5813 5814 5815 5816 5818 5819 5820 5820 5820 5821 5821 5821 5822 5821 5821 5820 5819 5818 5817 5816 5815 5813 5812 5810 5808 5807 5805 5803 5801 5799 5797 5794 5792 5790
5802 5803 5803 5803 5803 5803 5805 5806 5807 5808 5808 5809 5810 5811 5812 5813 5813 5814 5813 5814 5814 5813 5813 5812 5812 5810 5809 5808 5807 5805 5804 5802 5800 5798 5796 5794 5791 5789 5787 5784 5782 5779 5776
5796 5797 5797 5797 5797 5798 5799 5800 5801 5802 5802 5803 5804 5805 5805 5805 5806 5806 5806 5806 5805 5805 5804 5803 5802 5801 5800 5798 5797 5796 5794 5792 5790 5787 5785 5782 5780 5777 5774 5771 5768 5765 5762
5790 5790 5791 5791 5792 5792 5792 5793 5794 5795 5796 5797 5797 5798 5798 5798 5798 5798 5798 5798 5797 5797 5796 5794 5793 5792 5790 5788 5787 5785 5783 5781 5778 5776 5773 5770 5767 5764 5761 5758 5754 5751 5748
5783 5783 5784 5785 5785 5786 5787 5787 5788 5788 5789 5790 5790 5790 5790 5790 5791 5790 5790 5790 5789 5788 5787 5786 5784 5782 5780 5779 5777 5775 5772 5770 5767 5764 5761 5758 5754 5751 5747 5744 5740 5737 5733
5776 5777 5777 5778 5778 5779 5780 5781 5781 5782 5782 5782 5783 5783 5783 5783 5782 5782 5782 5781 5781 5780 5778 5777 5775 5773 5771 5769 5767 5764 5761 5758 5755 5752 5748 5745 5741 5738 5734 5730 5726 5723 5719
5769 5770 5770 5771 5772 5772 5773 5773 5774 5775 5775 5775 5775 5775 5775 5775 5774 5773 5773 5772 5771 5771 5769 5767 5765 5763 5761 5758 5755 5753 5750 5747 5743 5740 5736 5733 5729 5725 5721 5717 5713 5709 5706
5761 5762 5763 5764 5764 5765 5765 5766 5767 5767 5767 5767 5767 5767 5767 5766 5765 5765 5764 5763 5762 5761 5759 5757 5755 5753 5750 5748 5744 5742 5739 5735 5732 5728 5725 5721 5718 5714 5710 5706 5702 5698 5694
5754 5755 5755 5756 5757 5757 5758 5759 5759 5759 5759 5759 5759 5759 5758 5758 5757 5756 5755 5754 5752 5751 5749 5747 5745 5743 5740 5737 5734 5731 5728 5725 5721 5718 5714 5711 5707 5703 5699 5695 5691 5687 5683
5747 5747 5748 5749 5749 5750 5751 5751 5751 5751 5751 5751 5751 5750 5750 5749 5748 5747 5746 5744 5743 5741 5739 5737 5735 5732 5730 5727 5724 5721 5718 5715 5712 5709 5705 5702 5698 5694 5691 5687 5683 5679 5674
5740 5741 5741 5742 5742 5743 5743 5744 5744 5744 5744 5743 5743 5742 5741 5740 5739 5738 5736 5735 5733 5732 5729 5727 5725 5723 5720 5718 5715 5713 5710 5707 5704 5701 5697 5694 5690 5687 5683 5679 5675 5671 5667
5733 5734 5734 5735 5735 5735 5736 5736 5736 5736 5736 5735 5735 5734 5733 5731 5730 5729 5728 5726 5724 5722 5720 5718 5716 5714 5712 5710 5707 5705 5702 5699 5696 5693 5690 5687 5683 5680 5676 5672 5669 5665 5661
5726 5727 5727 5728 5728 5729 5729 5729 5729 5729 5728 5728 5727 5726 5724 5723 5722 5721 5719 5717 5716 5714 5712 5710 5708 5706 5704 5702 5700 5698 5695 5693 5690 5687 5684 5680 5677 5674 5671 5667 5664 5660 5656
5720 5721 5721 5721 5721 5722 5722 5722 5721 5721 5721 5720 5719 5718 5717 5716 5714 5713 5712 5710 5708 5706 5704 5703 5701 5699 5697 5695 5693 5691 5689 5686 5684 5681 5678 5675 5673 5669 5666 5663 5659 5656 5652
5715 5715 5715 5715 5715 5715 5715 5715 5715 5714 5713 5713 5712 5711 5710 5709 5707 5706 5704 5703 5701 5699 5697 5695 5694 5692 5690 5689 5687 5685 5683 5681 5678 5676 5673 5671 5668 5665 5662 5659 5656 5652 5649
5710 5710 5710 5710 5710 5709 5709 5709 5708 5708 5707 5706 5706 5704 5703 5702 5701 5699 5698 5696 5694 5692 5690 5689 5687 5686 5684 5683 5681 5680 5678 5676 5674 5672 5669 5667 5664 5661 5659 5656 5653 5649 5646
5706 5706 5705 5705 5705 5704 5704 5703 5703 5702 5702 5701 5700 5698 5697 5696 5694 5693 5691 5690 5688 5686 5685 5683 5682 5680 5679 5678 5676 5675 5673 5671 5669 5667 5665 5663 5660 5658 5655 5653 5650 5647 5643
Wind_Speed
25 26 26 27 26 26 26 25 24 22 22 22 21 21 20 20 18 18 19 18 18 17 17 18 17 17 17 17 17 18 18 18 18 18 18 19 19 20 20 21 21 22 22
24 25 26 27 27 27 26 26 25 24 22 23 22 22 22 21 20 20 20 20 20 19 19 19 20 20 20 20 19 20 20 21 21 21 20 20 21 22 22 23 23 23 24
25 25 26 26 26 27 27 26 26 26 24 23 24 23 22 22 22 21 21 21 21 21 21 21 21 21 22 22 22 22 23 23 24 24 24 24 24 25 25 25 26 26 27
25 24 24 24 25 25 26 26 24 25 25 24 23 24 23 23 22 22 22 22 23 23 23 24 24 24 24 24 25 25 26 26 26 27 27 27 27 28 28 29 29 30 30
23 23 23 23 24 25 25 25 24 24 24 23 22 23 24 24 24 24 24 24 24 24 24 25 25 25 26 27 27 27 27 28 28 29 29 29 30 30 31 31 32 33 33
20 21 21 23 23 24 24 25 25 25 24 24 24 24 25 25 25 25 25 25 25 25 26 26 27 28 28 29 29 29 30 30 31 31 31 32 33 33 34 34 35 35 36
19 19 20 21 23 24 24 24 24 24 24 25 26 26 26 27 27 27 27 27 27 28 28 28 29 29 30 30 31 31 32 33 33 34 34 35 36 36 37 37 37 38 39
20 20 20 21 23 23 23 24 24 25 25 25 26 27 28 29 29 29 29 29 30 30 30 31 31 31 31 32 33 33 34 35 36 36 37 37 38 38 39 39 40 41 41
21 20 19 19 20 22 22 22 22 25 26 26 26 28 28 29 29 29 30 31 32 32 32 32 32 33 34 35 35 36 37 36 37 37 38 39 40 40 41 42 43 43 44
20 20 19 18 20 21 21 22 22 23 25 26 27 28 28 29 30 30 31 32 33 33 33 34 34 35 36 36 37 37 37 38 38 39 39 40 42 42 43 45 46 47 48
23 22 21 19 19 21 21 22 23 24 24 26 27 28 28 29 30 31 31 33 34 34 35 35 36 37 37 38 37 37 38 39 40 41 42 43 45 46 47 48 49 50 50
24 23 22 22 21 22 22 22 23 24 25 26 27 28 29 29 30 31 32 33 34 35 35 36 36 38 38 38 39 40 41 42 43 44 45 46 47 48 49 50 50 51 51
26 25 24 24 23 23 23 23 23 25 26 27 28 28 29 30 30 31 32 32 33 35 36 37 38 38 38 39 40 41 42 43 44 45 46 47 48 49 50 50 51 51 52
26 26 25 25 24 24 24 24 25 26 27 28 29 30 30 31 32 33 33 34 34 35 36 37 37 37 39 40 41 43 44 45 46 46 47 48 49 49 50 50 51 51 51
26 26 25 25 25 26 26 26 26 27 28 29 29 29 31 31 32 32 33 33 34 34 35 36 37 39 40 41 42 43 44 44 45 46 47 48 48 49 49 49 50 50 49
26 26 26 26 26 26 26 27 27 27 27 28 28 29 29 30 31 31 32 33 34 34 36 37 38 40 41 42 43 43 44 44 45 45 46 46 47 47 47 47 47 46 46
27 28 27 26 26 25 26 26 27 27 27 28 28 29 30 30 31 32 32 34 35 36 36 37 38 40 41 42 42 42 43 43 43 44 43 43 43 43 43 42 42 42 42
26 26 26 25 26 26 26 27 27 28 28 28 29 29 29 30 31 32 32 34 34 35 36 37 38 39 40 40 40 40 40 40 39 39 39 39 38 38 38 38 38 38 38
23 24 24 25 26 26 26 27 27 27 27 27 28 29 29 30 31 32 32 33 34 35 36 37 37 37 37 37 37 36 35 35 35 35 35 35 34 34 34 34 34 34 34
23 23 24 24 25 25 25 26 26 26 26 27 27 28 29 31 31 32 33 33 34 34 34 34 34 33 33 33 32 32 32 32 32 32 31 31 31 31 30 30 29 29 29
21 22 23 22 22 23 24 25 26 26 27 27 28 29 29 30 31 31 31 31 31 31 31 30 30 30 30 29 29 29 29 29 29 29 28 28 28 27 26 25 25 26 26
20 20 20 21 22 22 23 24 25 26 27 27 28 29 29 29 29 29 28 28 28 28 28 28 28 28 28 27 27 27 27 26 26 26 25 24 24 23 23 22 23 23 23
18 19 19 20 21 22 23 24 24 25 26 26 27 27 27 26 25 25 25 25 26 26 26 26 26 26 26 25 24 24 24 24 23 22 22 21 21 20 20 20 20 20 20
16 17 18 19 20 20 21 22 22 23 23 23 23 23 23 23 23 23 24 24 24 24 24 24 24 23 23 22 21 21 21 21 20 19 19 19 18 18 18 18 18 18 18
14 15 16 17 17 17 18 18 19 20 20 20 20 20 21 21 21 22 22 22 22 22 21 21 21 20 20 19 19 19 18 18 17 17 17 17 17 16 16 16 16 16 16
11 12 13 14 14 14 15 16 17 17 18 18 17 17 18 18 18 19 19 19 19 19 19 18 18 18 18 17 17 17 16 16 16 16 16 16 15 15 14 14 14 15 15
Wind_Direction
261 262 262 262 261 259 258 259 258 258 256 253 254 255 251 251 250 252 254 256 257 259 261 264 269 272 274 278 282 283 284 284 285 284 283 281 280 280 279 278 276 274 273
260 261 262 262 261 259 257 256 257 258 255 253 252 253 250 249 250 252 255 257 258 261 263 266 269 272 274 277 280 283 284 283 282 282 282 283 282 281 280 279 277 275 274
260 263 263 262 261 259 257 257 257 258 255 253 252 252 253 252 252 254 254 256 259 262 265 268 270 272 275 277 279 281 282 283 282 281 282 282 282 281 280 279 277 276 275
256 258 261 260 261 258 256 255 256 255 253 254 252 252 252 252 252 252 254 256 260 263 267 268 270 273 277 278 279 281 281 281 282 282 282 282 282 281 280 279 277 277 276
256 256 257 258 255 254 253 252 253 251 252 250 247 249 251 250 251 252 257 259 259 261 265 268 270 274 276 277 279 280 281 282 283 282 283 283 283 283 282 281 279 278 277
259 257 257 256 252 252 253 255 254 250 249 247 248 250 251 250 249 252 255 257 259 263 267 269 272 275 277 278 279 279 280 281 282 282 282 283 284 284 283 282 281 279 278
265 265 262 255 253 253 255 257 253 248 245 246 247 250 250 250 250 253 256 259 261 263 267 270 272 275 278 279 281 281 281 281 282 282 282 283 283 284 284 282 282 280 279
269 269 263 255 252 253 254 255 252 247 247 246 247 250 250 250 253 255 257 260 262 264 266 270 273 275 277 279 280 281 282 282 283 283 283 284 284 284 284 283 283 282 280
270 268 261 256 255 255 254 253 249 249 248 246 246 248 251 252 255 257 260 262 264 265 267 271 272 275 277 279 280 280 281 282 283 284 284 285 285 286 285 285 284 283 282
273 270 267 266 262 255 251 250 250 249 247 248 249 253 255 256 257 258 262 264 266 268 271 272 274 276 278 279 280 280 281 283 284 285 286 286 287 286 286 286 286 285 283
277 276 273 272 264 256 252 252 254 252 250 252 254 257 258 259 260 261 264 266 267 271 274 275 275 277 278 279 280 281 282 284 286 286 287 287 287 288 287 287 287 285 284
272 273 273 272 267 261 258 257 257 254 253 256 258 259 259 263 264 264 266 267 269 271 274 276 277 278 278 279 281 282 284 285 286 287 288 288 288 288 288 287 287 286 285
268 270 271 270 266 263 262 261 260 258 258 259 260 261 262 264 265 267 269 271 272 273 275 277 279 279 280 281 283 284 285 286 287 288 288 288 289 288 288 288 288 287 286
268 268 269 267 267 265 263 262 262 264 264 264 264 263 265 266 266 268 271 272 274 275 277 278 280 280 282 283 284 285 285 286 287 288 288 289 289 289 289 288 288 288 287
266 265 264 265 266 264 263 263 264 265 265 266 266 267 268 268 268 270 273 274 275 276 277 278 280 282 283 284 285 285 286 287 288 289 289 290 290 289 289 289 289 288 287
264 264 265 265 265 263 262 262 264 265 266 268 270 271 271 272 273 273 275 277 277 278 279 280 281 282 284 285 285 286 287 288 289 289 290 290 290 290 290 290 290 289 289
265 263 264 265 266 265 264 264 265 267 269 271 272 272 273 275 276 277 278 279 279 280 281 281 282 283 284 285 286 287 287 288 289 291 291 292 292 292 292 292 292 291 291
262 261 263 263 265 264 264 266 267 268 269 270 271 273 275 277 277 278 279 280 280 281 281 281 282 283 284 285 286 288 289 290 292 293 293 293 294 294 294 295 294 294 294
262 263 263 263 265 265 264 265 266 267 268 270 272 274 276 277 278 279 279 280 280 280 281 282 283 284 285 287 288 289 290 292 293 294 294 295 296 296 297 297 298 298 299
261 262 262 263 264 264 264 265 265 266 269 272 274 275 276 277 277 278 278 279 280 281 282 283 284 285 287 288 289 290 291 293 293 294 295 296 297 299 299 300 301 302 303
260 260 260 261 263 264 265 265 266 268 270 270 272 274 274 275 277 277 278 279 281 282 284 285 286 286 287 288 289 290 291 292 293 295 297 298 299 301 302 303 306 308 310
263 262 263 263 262 262 263 264 266 268 269 270 272 274 275 277 278 279 279 281 282 283 284 285 285 286 287 288 289 290 291 293 295 298 300 300 301 303 305 308 310 312 314
262 260 261 262 263 263 264 267 268 270 270 271 273 276 279 280 280 280 282 283 284 285 284 285 285 285 286 287 289 291 293 295 298 300 300 302 304 306 309 311 313 316 319
261 261 264 265 266 266 266 267 269 270 271 274 277 278 280 281 281 282 284 285 285 286 286 285 285 285 286 287 289 292 295 297 298 300 301 304 306 307 310 313 316 320 323
263 265 266 267 266 265 266 269 270 272 274 277 278 280 281 282 283 284 286 287 288 287 286 286 286 286 286 288 291 294 296 299 300 302 304 306 307 307 310 314 318 322 326
268 269 270 269 269 269 270 273 275 276 277 279 281 283 283 285 286 288 290 290 290 290 289 288 287 286 287 289 292 295 298 300 302 304 306 308 308 309 311 315 321 326 330